Location: Dompnac
(44.5644°N, 4.1026°E)
Time: 11:33:33
(UTC+00:00)

Meteor 1-21 - Pass Details

Date: 19 September 2020
Orbit: 845 x 887 km, 81.2° (Epoch: 29 October)

Event Time Altitude Azimuth Distance (km) Brightness Sun altitude
Rises 18:06:15 0° 353° (N) 3,428 7.5 -4.4°
Reaches altitude 10° 18:08:45 10° 358° (N) 2,484 6.8 -4.9°
Maximum altitude 18:14:15 54° 75° (ENE) 1,021 4.4 -5.8°
Drops below altitude 10° 18:19:43 10° 153° (SSE) 2,461 6.3 -6.8°
Sets 18:22:10 0° 158° (SSE) 3,393 7.0 -7.2°
